Weather Roundup
Issued by NWS

Home | Current Version | Previous Version | Graphics & Text | Print | Product List | Glossary Off
Versions: 1 2 3 4 5 6 7 8 9 10 11 12 13 14 15 16 17 18 19 20 21 22 23 24 25 26 27 28 29 30 31 32 33 34 35 36 37 38 39 40 41 42 43 44 45 46 47 48 49 50

000
NZUS93 KARX 200459
HRRWXR

CURRENT HOURLY OBSERVATIONS ACROSS
MUCH OF THE UPPER MISSISSIPPI VALLEY
NATIONAL WEATHER SERVICE LA CROSSE WI
1100 PM CST FRI DEC 19 2014


...SOUTHEAST MINNESOTA...


CITY           SKY/WX    TMP DP  RH WIND       PRES   REMARKS
ROCHESTER      CLOUDY    27  22  81 S9        30.18S WCI  18
ROCHESTER/MAYO CLOUDY    28  22  76 SE6       30.19S WCI  22
WINONA         CLOUDY    30  23  74 SE5       30.24S WCI  25
AUSTIN         CLOUDY    28  25  86 S6        30.18R WCI  22
ALBERT LEA     CLOUDY    28  28 100 S7        30.16S FOG     WCI  21
DODGE CENTER   CLOUDY    28  27  93 S9        30.17S FOG     WCI  20
PRESTON        CLOUDY    26  22  84 S6        30.19S WCI  20
OWATONNA       CLOUDY    28  25  86 SE13      30.17S FOG     WCI  18
FARIBAULT      CLOUDY    28  27  93 SE7       30.17S WCI  21
$$

...ELSEWHERE IN MINNESOTA...


CITY           SKY/WX    TMP DP  RH WIND       PRES   REMARKS
MINNEAPOLIS    CLOUDY    29  24  82 SE9       30.17F HAZE    WCI  20
INTNL FALLS    LGT SNOW  24  21  88 SE5       30.08S FOG     WCI  18
DULUTH         CLOUDY    25  22  88 S7        30.13F FOG     WCI  17
RED WING       CLOUDY    30  23  74 SE6       30.20S WCI  24
REDWOOD FALLS  CLOUDY    32  28  85 S14       30.11R FOG     WCI  22
MANKATO        CLOUDY    30  27  86 S12       30.15S WCI  21
WORTHINGTON    CLOUDY    28  27  93 S13       30.09S WCI  18
FAIRMONT       CLOUDY    30  25  80 S10       30.13S WCI  21
$$

...SOUTHWEST WISCONSIN...


CITY           SKY/WX    TMP DP  RH WIND       PRES   REMARKS
LA CROSSE      CLOUDY    30  21  69 S7        30.24S WCI  23
PRAIRIE DU CHI CLOUDY    28  22  77 E3        30.25S
BOSCOBEL       CLOUDY    29  22  75 CALM      30.26S
LONE ROCK      NOT AVBL
PLATTEVILLE    CLOUDY    28  24  86 CALM      30.25R
FORT MC COY    CLOUDY    28  21  74 CALM      30.25S
VIROQUA        CLOUDY    27  22  83 S5        30.21S WCI  21
WIS DELLS      NOT AVBL
$$

...ELSEWHERE IN WISCONSIN...


CITY           SKY/WX    TMP DP  RH WIND       PRES   REMARKS
MILWAUKEE      CLOUDY    28  19  69 CALM      30.26S
MADISON        CLOUDY    26  21  81 CALM      30.25S
GREEN BAY      CLEAR     20  18  92 CALM      30.26S
EAU CLAIRE     CLOUDY    27  21  78 SE3       30.21S
BLACK RVR FLS  CLOUDY    28  22  76 CALM      30.24R
MEDFORD        CLOUDY    22  20  91 SE5       30.19S WCI  16
WAUSAU         CLOUDY    23  20  88 CALM      30.21R
WIS RAPIDS     CLOUDY    22  18  85 S3        30.25R
MARSHFIELD     CLOUDY    24  20  84 S6        30.22R WCI  17
RICE LAKE      CLOUDY    27  22  84 SE5       30.21S WCI  21
$$

...NORTHEAST IOWA...


CITY           SKY/WX    TMP DP  RH WIND       PRES   REMARKS
DECORAH        CLOUDY    27  23  86 SE6       30.20F WCI  20
MASON CITY     CLOUDY    28  26  92 SE10      30.18S WCI  19
CHARLES CITY   CLOUDY    28  25  86 SE9       30.20S WCI  20
OELWEIN        CLOUDY    28  25  86 S8        30.22R WCI  20
$$

...ELSEWHERE IN IOWA...


CITY           SKY/WX    TMP DP  RH WIND       PRES   REMARKS
DES MOINES     FRZ DRZL  32  30  92 S6        30.20R FOG     WCI  26
IOWA CITY      CLOUDY    30  24  78 SE6       30.26F WCI  24
FORT DODGE     CLOUDY    30  28  93 S9        30.17R WCI  22
$$

...NORTHERN ILLINOIS...


CITY           SKY/WX    TMP DP  RH WIND       PRES   REMARKS
CHICAGO-OHARE  CLOUDY    29  22  75 CALM      30.25F
CHICAGO-MIDWAY CLOUDY    33  25  72 S5        30.26F WCI  29
MOLINE         CLOUDY    29  23  78 E3        30.27R
ROCKFORD       MOCLDY    26  21  81 CALM      30.28S
PEORIA         PTCLDY    27  21  78 CALM      30.28S
$$

NOTE: "FAIR" INDICATES FEW OR NO CLOUDS BELOW 12,000 FEET WITH NO
SIGNIFICANT WEATHER AND/OR OBSTRUCTIONS TO VISIBILITY. WIND
SPEEDS ARE IN MILES-PER-HOUR.



USA.gov is the U.S. government's official web portal to all federal, state and local government web resources and services.